sat.trackr.live / text

‹ back to catalog

HYLAS 2

NORAD 38741 · 2012-043B

PAYLOAD ACTIVE UNKNOWN

§ Identity

Operator
Country
UK
Launch date
2012-08-02
Launch site
FRGUI
Launch vehicle
Mass (kg)
RCS (m²)
5.01

Purposes: comms

External: N2YO · Heavens-Above · Gunter

§ Orbital elements

Epoch: 2026-05-25T02:42:04.160160Z

Period
1,436.11 min
Inclination
2.3701°
Eccentricity
0.0002845
Mean motion
1.00271195 rev/d
Perigee alt
35,774.8 km
Apogee alt
35,798.8 km
Semi-major
42,164.9 km
B*
0.0000e+0
RAAN
81.3372°
Arg perigee
3.9600°
Mean anomaly
125.3631°
Rev number
5,054

§ Raw data

HYLAS 21 38741U 12043B   26145.11254815 -.00000259  00000+0  00000+0 0  99932 38741   2.3701  81.3372 0002845   3.9600 125.3631  1.00271195 50540

JSON: /api/v1/satellites/38741 · /tle

For live sub-satellite position, see the globe view (requires WebGL).

§ Visibility from observer

Set your observer location to see the next 7 days of passes ≥ 10°. The values pass through the URL so the page stays shareable.

No JS? Fill the form by hand. The geolocation button needs JavaScript.